Location: Morisset
(33.1080°S, 151.4871°E)
Time: 08:44:47
(UTC+00:00)

CZ-4B R/B - Pass Details

Date: 29 October 2020
Orbit: 495 x 647 km, 97.8° (Epoch: 27 November)

Event Time Altitude Azimuth Distance (km) Brightness Sun altitude
Rises 18:03:08 0° 9° (N) 2,601 7.1 -11.3°
Reaches altitude 10° 18:05:13 10° 7° (N) 1,713 6.2 -10.9°
Maximum altitude 18:08:53 74° 282° (WNW) 528 3.5 -10.2°
Drops below altitude 10° 18:12:34 10° 196° (SSW) 1,724 6.5 -9.5°
Sets 18:14:41 0° 194° (SSW) 2,620 7.4 -9.1°
